Flag for U.S.A. Weather past 2 weeks in Fairbanks, Alaska, U.S.A.

Now
64 °F

Scattered clouds.


Feels Like: 64 °F
Forecast: 39 / 64 °F
Wind: 7 mph from North

Location: Wainwright U. S. Army Airfield

Current Time: Sep 17, 2014 at 4:45:10 PM

Latest Report: Sep 17, 2014 at 3:55 PM


Visibility: 25 mi

Pressure: 29.32 "Hg

Humidity: 32%

Dew point: 34 °F

Location of FairbanksLocation

Historic Weather in Fairbanks — Graph

°F

Fairbanks temperature yesterday

Maximum temperature yesterday: 61 °F (at 3:55 PM)
Minimum temperature yesterday: 39 °F (at 6:55 AM)
Average temperature yesterday: 50 °F

Past Weeks' High & Low Weather Summary

 TemperatureHumidityPressure
High79 °F (Sep 17, 12:55 PM)93% (Sep 4, 6:55 AM)30.14 "Hg (Sep 4, 6:55 AM)
Low28 °F (Sep 4, 6:55 AM)21% (Sep 17, 12:55 PM)29.34 "Hg (Sep 17, 2:55 PM)
Average51 °F59%29.87 "Hg
* Reported Sep 2 2:55 PM — Sep 17 2:55 PM, Fairbanks, Weather by CustomWeather, © 2014

Note: Actual official high and low records may vary slightly from our data, if they occured in-between our weather recording intervals... More about our weather records

Advertising

Fairbanks weather history for previous 24 hours

 ConditionsComfort  
Time TempWeatherWind HumidityBarometerVisibility
2:55 PM
Sep 17
64 °FScattered clouds.9 mph32%29.34 "Hg25 mi
1:55 PM63 °FScattered clouds.9 mph34%29.37 "Hg25 mi
12:55 PM79 °FScattered clouds.8 mph21%29.39 "Hg25 mi
11:55 AM57 °FScattered clouds.13 mph44%29.41 "Hg25 mi
10:55 AM50 °FScattered clouds.3 mph62%29.43 "Hg25 mi
9:55 AM43 °FBroken clouds.8 mph76%29.44 "Hg13 mi
8:55 AM39 °FPartly sunny.10 mph81%29.46 "Hg13 mi
7:55 AM37 °FPassing clouds.12 mph87%29.46 "Hg13 mi
6:55 AM37 °FPassing clouds.6 mph87%29.49 "Hg13 mi
4:56 AM39 °FClear.5 mph86%29.51 "Hg10 mi
3:56 AM38 °FClear.6 mph86%29.53 "Hg10 mi
2:56 AM40 °FClear.3 mph80%29.55 "Hg10 mi
1:56 AM41 °FClear.7 mph80%29.57 "Hg10 mi
12:56 AM43 °FClear.6 mph76%29.57 "Hg10 mi
11:56 PM
Sep 16
45 °FClear.9 mph74%29.58 "Hg10 mi
10:56 PM46 °FClear.5 mph77%29.59 "Hg10 mi
9:56 PM47 °FClear.7 mph74%29.60 "Hg10 mi
8:55 PM48 °FScattered clouds.3 mph71%29.60 "Hg25 mi
7:55 PM54 °FScattered clouds.6 mph63%29.61 "Hg25 mi
6:55 PM59 °FBroken clouds.3 mph48%29.62 "Hg25 mi
5:55 PM61 °FBroken clouds.5 mph45%29.63 "Hg25 mi
4:55 PM61 °FBroken clouds.No wind45%29.64 "Hg25 mi
Weather by CustomWeather, © 2014

See weather overviewHow to use our weather pages